Weather History for Ireland West Airport Knock, Ireland

Change the Weather History Date:

Thursday, December 20, 2012

  Actual Average Record
Temperature  
Mean Temperature 42 °F -  
Max Temperature 44 °F - - ()
Min Temperature 40 °F - - ()
Degree Days  
Heating Degree Days 23    
Moisture  
Dew Point 43 °F    
Average Humidity 100    
Maximum Humidity 100    
Minimum Humidity 93    
Precipitation  
Precipitation 0.00 in - - ()
Sea Level Pressure  
Sea Level Pressure 29.47 in    
Wind  
Wind Speed 4 mph ()    
Max Wind Speed 9 mph    
Max Gust Speed -    
Visibility 1.3 miles    
Events Fog , Rain    
T = Trace of Precipitation, MM = Missing Value Source: Averaged Metar Reports

Daily Weather History Graph

Daily Weather History Graph

Search for Another Location

Airport:

Trip Planner

Search our weather history database for the weather conditions in past years. The results will help you decide how hot, cold, wet, or windy it might be!

Date:

Astronomy

Dec. 20, 2012 Rise Set
Actual Time 8:51 AM GMT 4:14 PM GMT
Civil Twilight 8:07 AM GMT 4:58 PM GMT
Nautical Twilight 7:21 AM GMT 5:44 PM GMT
Astronomical Twilight 6:38 AM GMT 6:27 PM GMT
Moon 12:14 PM GMT (12/20) 12:32 AM GMT (12/20)
Length of Visible Light 8h 50m
Length of Day
7h 23m
First Quarter, 53% of the Moon is Illuminated
Dec 20
First Quarter
Dec 28
Full
Jan 5
Last Quarter
Jan 11
New
Jan 18
First Quarter

Hourly Weather History & Observations

Time (GMT) Temp. Windchill Dew Point Humidity Pressure Visibility Wind Dir Wind Speed Gust Speed Precip Events Conditions
12:00 AM 41 °F - 41 °F 100% 29.64 in - SE 8.9 mph - -  
6:00 AM 42 °F - 42 °F 100% 29.52 in 0 mi ESE 8.9 mph - - Fog Heavy Fog
8:00 AM 42.8 °F 40.1 °F 42.8 °F 100% 29.47 in 0.2 mi East 4.6 mph - N/A Fog Fog
8:30 AM 42.8 °F 40.1 °F 42.8 °F 100% 29.47 in 0.1 mi East 4.6 mph - N/A Fog Fog
9:00 AM 42.8 °F 40.1 °F 42.8 °F 100% 29.47 in 0.1 mi East 4.6 mph - N/A Fog Fog
9:30 AM 42.8 °F 38.6 °F 42.8 °F 100% 29.47 in 0.1 mi ENE 6.9 mph - N/A Fog Fog
10:00 AM 42.8 °F 38.6 °F 42.8 °F 100% 29.47 in 0.1 mi East 6.9 mph - N/A Fog Fog
10:30 AM 42.8 °F 40.1 °F 42.8 °F 100% 29.47 in 0.1 mi East 4.6 mph - N/A Fog Fog
11:00 AM 44.6 °F 43.1 °F 44.6 °F 100% 29.47 in 0.1 mi ESE 3.5 mph - N/A Fog Fog
11:30 AM 44.6 °F 43.1 °F 44.6 °F 100% 29.47 in 0.1 mi ESE 3.5 mph - N/A Fog Fog
12:00 PM 44 °F - 44 °F 100% 29.49 in 3 mi ESE 4.5 mph - - Fog Light Fog
12:00 PM 44.6 °F 43.1 °F 44.6 °F 100% 29.47 in 3.1 mi ESE 3.5 mph - N/A   Overcast
12:30 PM 44.6 °F 43.1 °F 44.6 °F 100% 29.44 in 3.1 mi East 3.5 mph - N/A   Overcast
1:00 PM 44.6 °F - 44.6 °F 100% 29.44 in 3.7 mi East 2.3 mph - N/A   Mostly Cloudy
1:30 PM 44.6 °F - 44.6 °F 100% 29.44 in 4.3 mi ESE 2.3 mph - N/A   Overcast
2:00 PM 44.6 °F - 44.6 °F 100% 29.44 in 4.3 mi ESE 1.2 mph - N/A   Mostly Cloudy
2:30 PM 44.6 °F - 44.6 °F 100% 29.44 in 4.3 mi ESE 1.2 mph - N/A   Mostly Cloudy
3:00 PM 44.6 °F 43.1 °F 44.6 °F 100% 29.44 in 1.1 mi SE 3.5 mph - N/A   Mostly Cloudy
3:30 PM 44.6 °F - 44.6 °F 100% 29.44 in 1.1 mi SSE 2.3 mph - N/A   Mostly Cloudy
4:00 PM 42.8 °F - 42.8 °F 100% 29.47 in 0.2 mi South 2.3 mph - N/A Fog Fog
4:30 PM 44.6 °F - 42.8 °F 93% 29.47 in 0.2 mi South 2.3 mph - N/A Fog Fog
5:00 PM 42.8 °F - 42.8 °F 100% 29.47 in - SW 2.3 mph - N/A   Mostly Cloudy
6:00 PM 42 °F - 42 °F 99% 29.52 in 0 mi SSW 4.5 mph - - Fog Heavy Fog
6:00 PM 41.0 °F 38.0 °F 41.0 °F 100% 29.47 in 0.2 mi SSW 4.6 mph - N/A Fog Fog
7:00 PM 41.0 °F 39.0 °F 41.0 °F 100% 29.50 in 0.2 mi SSW 3.5 mph - N/A Rain Rain